TimeCST,TemperatureF,Dew PointF,Humidity,Sea Level PressureIn,VisibilityMPH,Wind Direction,Wind SpeedMPH,Gust SpeedMPH,PrecipitationIn,Events,Conditions,WindDirDegrees,DateUTC
12:00 AM,68,66,92,29.89,5,WNW,3.5,,,Fog,Light Fog,290,2013-07-01 06:00:00
12:00 AM,68.0,66.2,94,30.05,5.0,WNW,3.5,-,N/A,,Scattered Clouds,290,2013-07-01 06:00:00
1:00 AM,68.0,66.2,94,30.03,6.2,Calm,Calm,-,N/A,,Scattered Clouds,0,2013-07-01 07:00:00
2:00 AM,68.0,66.2,94,30.01,6.2,Calm,Calm,-,N/A,,Scattered Clouds,0,2013-07-01 08:00:00
3:00 AM,67,65,91,29.83,12,North,2.3,,,,,350,2013-07-01 09:00:00
3:00 AM,68.0,64.4,88,30.00,-9999.0,North,2.3,-,N/A,,Clear,350,2013-07-01 09:00:00
4:00 AM,66.2,64.4,94,30.00,-9999.0,North,2.3,-,N/A,,Clear,10,2013-07-01 10:00:00
5:00 AM,66.2,64.4,94,30.02,6.2,SE,2.3,-,N/A,,Scattered Clouds,140,2013-07-01 11:00:00
6:00 AM,66,64,89,29.89,12,ENE,2.3,,,,Scattered Clouds,70,2013-07-01 12:00:00
6:00 AM,66.2,64.4,94,30.03,6.2,ENE,2.3,-,N/A,,Scattered Clouds,70,2013-07-01 12:00:00
7:00 AM,71.6,64.4,78,30.06,-9999.0,East,6.9,-,N/A,,Clear,100,2013-07-01 13:00:00
8:00 AM,77.0,64.4,65,30.05,6.2,East,5.8,-,N/A,,Mostly Cloudy,80,2013-07-01 14:00:00
8:40 AM,78.8,64.4,61,30.07,6.2,SSW,4.6,-,N/A,,Mostly Cloudy,200,2013-07-01 14:40:00
9:00 AM,77,63,54,29.90,12,WSW,8.1,,,,Scattered Clouds,250,2013-07-01 15:00:00
9:00 AM,77.0,62.6,61,30.07,6.2,WSW,8.1,-,N/A,,Mostly Cloudy,250,2013-07-01 15:00:00
10:00 AM,80.6,62.6,54,30.06,6.2,NW,10.4,-,N/A,,Mostly Cloudy,310,2013-07-01 16:00:00
11:00 AM,78.8,64.4,61,30.06,6.2,WSW,17.3,-,N/A,,Mostly Cloudy,240,2013-07-01 17:00:00
12:00 PM,78,66,58,29.87,12,WSW,16.1,,,,Overcast,240,2013-07-01 18:00:00
12:00 PM,78.8,66.2,65,30.04,6.2,WSW,16.1,-,N/A,,Mostly Cloudy,240,2013-07-01 18:00:00
1:00 PM,78.8,64.4,61,30.02,6.2,WSW,10.4,-,N/A,,Mostly Cloudy,240,2013-07-01 19:00:00
2:00 PM,77.0,62.6,61,30.00,6.2,ENE,11.5,-,N/A,,Mostly Cloudy,70,2013-07-01 20:00:00
3:00 PM,72,64,69,29.85,12,East,6.9,,,Rain,Light Rain,100,2013-07-01 21:00:00
3:00 PM,71.6,64.4,78,29.99,6.2,East,6.9,-,N/A,Rain,Light Rain,100,2013-07-01 21:00:00
4:00 PM,71.6,62.6,73,29.99,6.2,ENE,5.8,-,N/A,,Mostly Cloudy,70,2013-07-01 22:00:00
5:00 PM,71.6,64.4,78,29.99,6.2,SSW,3.5,-,N/A,,Mostly Cloudy,200,2013-07-01 23:00:00
6:00 PM,71,65,77,29.87,12,WSW,3.5,,,,Scattered Clouds,240,2013-07-02 00:00:00
6:00 PM,71.6,66.2,83,30.03,6.2,WSW,3.5,-,N/A,,Mostly Cloudy,240,2013-07-02 00:00:00
7:00 PM,71.6,64.4,78,30.05,-9999.0,WNW,2.3,-,N/A,,Clear,300,2013-07-02 01:00:00
8:00 PM,69.8,66.2,88,30.05,-9999.0,Calm,Calm,-,N/A,,Clear,0,2013-07-02 02:00:00
9:00 PM,69,66,86,29.87,12,East,3.5,,,,Mostly Cloudy,100,2013-07-02 03:00:00
9:00 PM,69.8,66.2,88,30.05,-9999.0,East,3.5,-,N/A,,Clear,100,2013-07-02 03:00:00
10:00 PM,69.8,64.4,83,30.04,-9999.0,ENE,5.8,-,N/A,,Clear,60,2013-07-02 04:00:00
11:00 PM,69.8,62.6,78,30.02,-9999.0,NE,6.9,-,N/A,,Clear,40,2013-07-02 05:00:00